Location: Izdebno
(52.6670°N, 16.2170°E)
Time: 02:45:44
(UTC+02:00)

SR - Pass Details

Date: 27 February 2024
Orbit: 577 x 862 km, 66.7° (Epoch: 22 April)

Event Time Altitude Azimuth Distance (km) Brightness Sun altitude
Rises 17:43:49 0° 275° (W) 3,419 ? -3.0°
Reaches altitude 10° 17:46:53 10° 289° (WNW) 2,456 ? -3.5°
Maximum altitude 17:51:18 23° 340° (NNW) 1,683 ? -4.1°
Drops below altitude 10° 17:55:32 10° 32° (NNE) 2,334 ? -4.8°
Enters shadow 17:58:21 - 47° (NE) 3,202 ? -5.2°
Sets 17:58:22 0° 48° (NE) 3,208 - -5.2°
